EHI
0 0 0 0 0 0 0 0 0 0 0 0 0 0 0 0 0 0 0 0 0 0 0 0 0 0 0 0 0 0 0 1 2 2 1 0 0 0 0 0 0 0 0
0 0 0 0 0 0 0 0 0 0 0 0 0 0 0 0 0 0 0 0 0 0 0 0 0 0 0 0 0 0 0 1 2 1 0 0 0 0 0 0 0 0 0
0 0 0 0 0 0 0 0 0 0 0 0 0 0 0 0 0 0 0 0 0 0 0 0 0 0 0 0 0 0 1 1 2 1 1 0 0 0 0 0 0 0 0
0 0 0 0 0 0 0 0 0 0 0 0 0 0 0 0 0 0 0 0 0 0 0 0 0 0 0 0 0 0 1 2 1 1 1 0 0 0 0 0 0 0 0
0 0 0 0 0 0 0 0 0 0 0 0 0 0 0 0 0 0 0 0 0 0 0 0 0 0 0 0 0 0 1 1 1 0 0 0 0 0 0 0 0 0 0
0 0 0 0 0 0 0 0 0 0 0 0 0 0 0 0 0 0 0 0 0 0 0 0 0 0 0 0 0 0 0 1 0 0 0 1 1 1 0 0 0 0 0
0 0 0 0 0 0 0 0 0 0 0 0 0 0 0 0 0 0 0 0 0 0 0 0 0 0 0 0 0 0 1 1 1 0 1 2 2 1 0 0 0 0 0
0 0 0 0 0 0 0 0 0 0 0 0 0 0 0 0 0 0 0 0 0 0 0 0 0 0 0 0 0 0 1 1 1 0 1 2 1 1 0 0 0 0 0
0 0 0 0 0 0 0 0 0 0 0 0 0 0 0 0 0 0 0 0 0 0 0 0 0 0 0 0 0 0 0 0 0 0 1 1 0 0 0 0 0 0 0
0 0 0 0 0 0 0 0 0 0 0 0 0 0 0 0 0 0 0 0 0 0 0 0 0 0 0 0 0 0 0 0 0 0 0 0 0 0 0 0 0 0 0
0 0 0 0 0 0 0 0 0 0 0 0 0 0 0 0 0 0 0 0 0 0 0 0 0 0 0 0 0 0 0 0 0 0 0 0 0 0 0 0 0 0 0
0 0 0 0 0 0 0 0 0 0 0 0 0 0 0 0 0 0 0 0 0 0 0 0 0 0 0 0 0 0 0 0 0 0 0 0 0 0 0 0 0 0 0
0 0 0 0 0 0 0 0 0 0 0 0 0 0 0 0 0 0 0 0 0 0 0 0 0 0 0 0 0 0 0 0 0 0 0 0 0 0 0 0 0 0 0
0 0 0 0 0 0 0 0 0 0 0 0 0 0 0 0 0 0 0 0 0 0 0 0 0 0 0 0 0 0 0 0 0 0 0 0 0 0 0 0 0 0 0
0 0 0 0 0 0 0 0 0 0 0 0 0 0 0 0 0 0 0 0 0 0 0 0 0 0 0 0 0 0 0 0 0 0 0 0 0 0 0 0 0 0 0
0 0 0 0 0 0 0 0 0 0 0 0 0 0 0 0 0 0 0 0 0 0 0 0 0 0 0 0 0 0 0 0 0 0 0 0 0 0 0 0 0 0 0
0 0 0 0 0 0 0 0 0 0 0 0 0 0 0 0 0 0 0 0 0 0 0 0 0 0 0 0 0 0 0 0 0 0 0 0 0 0 0 0 0 0 0
0 0 0 0 0 0 0 0 0 0 0 0 0 0 0 0 0 0 0 0 0 0 0 0 0 0 0 0 0 0 0 0 0 0 0 0 0 0 0 0 0 0 0
0 0 0 0 0 0 0 0 0 0 0 0 0 0 0 0 0 0 0 0 0 0 0 0 0 0 0 0 0 0 0 0 0 0 0 0 0 0 0 0 0 0 0
0 0 0 0 0 0 0 0 0 0 0 0 0 0 0 0 0 0 0 0 0 0 0 0 0 0 0 0 0 0 0 0 0 0 0 0 0 0 0 0 0 0 0
0 0 0 0 0 0 0 0 0 0 0 0 0 0 0 0 0 0 0 0 0 0 0 0 0 0 0 0 0 0 0 0 0 0 0 0 0 0 0 0 0 0 0
0 0 0 0 0 0 0 0 0 0 0 0 0 0 0 0 0 0 0 0 0 0 0 0 0 0 0 0 0 0 0 0 0 0 0 0 0 0 0 0 0 0 0
0 0 0 0 0 0 0 0 0 0 0 0 0 0 0 0 0 0 0 0 0 0 0 0 0 0 0 0 0 0 0 0 0 0 0 0 0 0 0 0 0 0 0
0 0 0 0 0 0 0 0 0 0 0 0 0 0 0 0 0 0 0 0 0 0 0 0 0 0 0 0 0 0 0 0 0 0 0 0 0 0 0 0 0 0 0
0 0 0 0 0 0 0 0 0 0 0 0 0 0 0 0 0 0 0 0 0 0 0 0 0 0 0 0 0 0 0 0 0 0 0 0 0 0 0 0 0 0 0
0 0 0 0 0 0 0 0 0 0 0 0 0 0 0 0 0 0 0 0 0 0 0 0 0 0 0 0 0 0 0 0 0 0 0 0 0 0 0 0 0 0 0
Wind_Speed
2 2 2 1 2 1 2 2 2 2 3 3 3 3 3 3 3 3 2 5 5 4 3 3 3 4 4 4 4 5 5 5 5 5 5 5 5 5 5 5 5 5 5
2 2 2 1 1 1 1 1 1 1 1 2 3 3 3 2 3 3 2 3 5 4 3 3 2 3 3 3 3 4 4 4 4 4 4 4 4 4 4 4 4 4 4
2 2 2 1 1 1 1 1 2 2 2 2 2 2 2 2 2 2 2 2 3 5 4 3 3 2 2 3 2 3 3 3 3 3 3 3 3 3 3 3 4 4 3
2 2 1 1 0 1 1 1 1 2 1 1 1 1 1 1 2 2 2 2 2 2 4 4 3 3 2 2 2 1 3 3 2 3 3 3 2 2 2 2 3 3 3
2 2 1 1 1 1 1 1 1 1 1 1 1 1 1 1 1 1 2 2 2 2 2 3 4 3 3 2 2 1 2 2 2 2 2 2 2 2 2 2 2 2 2
1 2 1 1 1 1 1 1 1 1 1 1 1 2 2 1 1 1 0 1 1 2 2 2 2 2 3 3 3 2 0 1 2 3 3 3 3 3 2 2 2 2 2
2 1 1 1 1 2 1 1 1 1 1 1 2 2 2 2 1 1 0 1 1 1 1 1 1 1 2 3 3 3 2 1 2 3 3 3 3 3 2 2 2 1 1
2 1 1 1 1 1 1 1 1 1 0 0 2 1 1 2 2 2 1 0 0 1 1 1 0 1 1 1 3 4 3 2 2 3 4 4 3 3 3 2 2 1 1
1 1 1 0 1 1 1 1 2 2 1 1 0 2 2 3 2 2 1 1 1 1 1 1 1 1 1 1 2 3 3 2 3 2 3 4 4 3 3 3 2 2 1
1 1 1 0 0 1 1 1 1 1 2 1 1 1 1 1 2 1 2 1 1 1 1 1 1 1 1 1 2 4 3 3 4 3 2 2 2 3 4 3 3 2 2
1 1 1 1 1 1 1 1 1 1 1 2 1 1 1 1 1 2 3 2 2 2 2 2 1 1 2 1 2 3 4 4 4 4 4 3 4 4 3 3 3 3 2
1 1 1 1 1 1 1 2 2 2 2 2 2 1 1 2 2 2 2 3 3 3 3 2 2 2 2 1 2 4 5 4 5 5 5 5 5 5 5 5 4 4 3
1 1 1 1 1 2 2 2 2 2 2 2 3 2 2 2 2 2 2 2 2 3 2 2 2 2 2 1 2 4 5 4 5 5 6 5 5 5 5 6 6 5 5
2 2 2 2 2 2 2 2 2 2 2 3 3 3 2 2 2 2 2 2 2 2 2 4 2 2 2 2 3 3 3 5 6 5 5 5 5 5 5 6 6 5 5
2 2 2 3 2 2 2 2 2 2 2 3 3 3 3 2 2 2 2 3 3 3 4 3 2 2 2 2 3 3 3 6 6 6 6 6 5 5 6 6 6 6 6
2 3 3 2 2 2 3 3 3 2 2 3 2 3 3 2 2 2 2 2 3 3 4 3 3 2 2 3 5 3 4 6 6 7 7 7 6 6 6 6 6 6 6
3 3 3 3 3 3 3 3 3 3 3 3 3 3 4 3 3 2 2 2 3 3 4 4 3 3 2 3 4 3 3 3 4 7 8 8 7 7 6 7 7 7 7
3 3 3 3 3 3 3 4 4 4 4 4 4 4 4 3 4 3 2 3 3 3 4 5 3 3 3 4 3 3 3 3 4 7 8 8 8 8 8 8 8 8 7
3 3 3 3 4 3 4 4 4 4 4 4 5 5 5 4 4 3 3 3 3 3 3 3 4 3 3 2 3 3 4 3 4 6 7 8 8 9 10 9 9 8 8
3 3 3 3 4 4 4 4 4 4 4 4 4 4 4 5 5 4 4 4 4 3 3 3 3 3 3 2 2 3 3 3 4 4 5 6 8 9 10 10 9 9 8
3 3 3 4 4 4 4 4 3 4 4 4 4 4 4 5 6 5 4 4 4 3 3 3 3 3 2 2 3 2 4 4 4 2 3 4 4 4 5 7 8 9 9
3 3 3 3 4 4 7 7 5 3 4 4 4 4 4 5 6 7 8 7 6 5 5 4 3 4 4 3 2 3 3 3 4 2 2 4 3 4 4 4 7 9 9
3 4 4 4 4 6 8 8 7 4 3 4 4 4 4 4 5 4 5 7 7 8 7 5 5 5 4 4 3 3 4 4 5 3 3 5 3 5 4 5 9 10 10
3 4 4 4 4 6 8 8 7 4 3 4 4 4 5 4 5 5 4 4 4 5 6 5 5 5 5 4 4 5 5 4 4 3 3 4 3 4 4 4 9 10 10
4 4 4 4 4 5 8 8 7 3 3 4 4 4 4 5 7 7 5 4 5 5 6 6 7 7 7 8 5 2 2 3 4 4 2 3 3 4 4 4 5 8 9
4 4 5 4 4 5 7 8 6 3 3 4 3 4 6 6 8 8 4 4 6 5 4 4 5 5 5 5 6 4 4 3 3 4 2 2 2 2 3 2 2 3 4
Wind_Direction
106 96 86 70 64 60 60 47 42 45 50 49 52 61 55 51 42 28 17 34 37 47 74 98 99 104 92 108 119 119 114 115 118 119 117 114 110 109 107 105 106 104 101
117 119 106 92 72 72 83 74 58 58 51 54 53 52 60 54 51 38 22 22 28 33 51 81 93 112 104 98 126 130 124 125 130 130 129 127 123 121 115 109 105 101 102
114 121 124 105 84 81 89 80 67 62 56 54 52 42 56 55 50 42 25 19 12 21 28 56 67 82 103 86 103 151 144 126 125 136 141 140 137 130 121 113 112 107 98
104 116 118 126 130 94 89 107 99 88 68 66 55 25 36 54 50 45 37 34 17 11 13 28 44 49 56 53 63 136 157 144 143 148 147 143 148 149 151 142 130 124 114
90 114 117 112 127 100 89 113 104 125 117 102 87 45 23 32 28 39 44 34 22 23 14 15 20 28 29 18 21 41 168 163 164 168 172 175 174 170 169 178 174 170 154
58 101 112 113 104 101 81 94 116 95 126 131 80 35 3 351 5 31 37 29 14 24 22 7 0 360 10 356 348 349 225 175 180 189 196 198 201 202 195 184 179 180 186
29 76 83 119 117 114 120 103 115 119 76 95 84 21 350 349 352 332 8 48 13 4 21 6 354 4 347 343 335 327 297 276 219 200 197 200 203 199 201 203 195 180 160
21 33 87 129 107 104 102 111 111 137 152 132 131 121 333 328 337 323 319 271 321 344 330 327 350 12 1 340 331 330 296 279 272 217 202 200 200 200 203 208 216 209 205
48 22 33 133 126 139 182 203 184 160 193 251 153 151 173 221 299 306 301 305 296 276 275 296 335 328 334 328 316 317 302 287 279 255 223 213 213 218 208 217 220 227 237
37 36 20 282 158 146 180 219 195 184 169 211 278 283 233 186 189 268 295 298 290 269 261 278 282 287 295 308 312 319 303 282 263 254 258 264 252 242 237 235 228 222 237
3 25 21 321 230 209 205 221 218 196 189 202 215 238 261 275 222 203 253 277 299 281 266 250 250 264 264 267 279 315 316 288 262 253 252 259 266 262 256 253 251 246 251
311 353 340 322 271 242 234 233 226 218 219 220 229 218 199 197 210 206 227 248 267 277 275 258 243 244 246 252 274 306 300 307 292 265 255 252 260 261 264 266 266 264 258
271 263 273 266 279 266 254 251 236 237 233 226 224 237 233 228 219 219 209 238 266 280 281 272 245 240 238 238 267 296 286 294 301 288 260 252 258 265 264 268 271 272 269
269 262 249 246 253 265 259 253 249 246 242 241 244 241 244 242 231 221 206 201 251 273 269 265 271 241 241 242 260 277 273 289 287 285 279 260 256 261 261 264 267 271 273
297 292 271 253 253 263 259 245 247 250 245 244 247 246 246 246 237 234 221 204 201 237 255 257 254 241 247 255 270 262 265 279 284 282 283 273 259 253 251 254 261 267 270
306 296 289 276 263 259 257 241 248 247 240 251 252 244 253 257 245 239 230 231 223 220 243 248 256 269 270 277 283 273 264 281 277 278 278 274 263 252 249 253 257 263 265
295 286 280 280 273 264 254 244 247 243 239 249 252 246 252 253 244 243 240 236 238 229 242 262 265 275 257 261 283 280 273 265 265 271 273 275 269 258 250 252 254 257 259
290 285 284 282 279 277 266 249 250 247 236 241 246 244 248 246 238 237 239 242 243 241 236 255 269 267 254 252 258 271 281 277 264 268 270 270 266 263 256 252 251 251 253
296 299 296 287 285 281 276 263 249 250 246 245 244 243 247 237 238 239 237 240 246 253 242 244 262 260 260 268 265 273 274 277 277 271 267 266 268 266 257 253 250 248 249
288 291 292 289 288 282 278 276 262 254 253 256 256 252 248 233 232 235 237 239 243 250 248 245 256 255 254 259 250 259 276 276 278 283 280 280 275 271 259 255 253 249 251
296 291 291 296 296 287 275 276 267 258 256 259 263 261 259 260 249 242 243 237 237 243 250 256 261 262 252 243 243 252 265 281 277 266 277 276 276 268 265 261 257 253 254
302 299 290 292 295 293 296 289 285 269 266 258 263 269 267 262 265 259 257 255 246 241 243 245 256 258 255 254 255 255 266 281 282 276 277 278 274 266 264 260 261 259 258
297 296 293 292 289 292 299 296 288 282 267 260 257 261 269 272 276 271 269 268 261 260 250 242 248 254 254 244 244 253 253 260 264 268 273 275 266 267 265 266 269 261 257
283 282 286 286 288 294 303 304 301 291 273 268 264 256 254 261 261 266 265 269 266 263 260 250 249 256 258 254 240 241 251 270 283 270 244 264 268 268 276 263 261 259 260
285 282 283 281 283 295 302 304 307 287 278 277 275 270 264 256 262 268 262 262 271 277 280 269 265 268 271 268 262 251 251 264 277 272 240 250 274 287 277 261 258 265 265
279 285 290 285 281 286 293 299 303 286 277 280 280 273 273 276 273 269 253 246 260 268 274 282 276 276 275 277 273 248 235 245 269 272 239 244 270 302 294 274 269 274 263